Dewpoint
42 41 40 39 37 36 36 36 37 41 41 41 41 41 40 39 40 39 39 37 36 36
41 40 38 37 36 36 35 35 37 38 40 38 37 39 39 37 37 38 39 39 38 38
36 36 36 35 35 35 36 36 36 38 38 38 39 38 38 37 38 38 37 36 37 37
33 34 35 35 37 39 37 36 35 38 40 39 39 37 37 35 34 32 33 33 32 32
32 37 36 36 35 36 38 35 35 34 36 38 37 36 35 32 30 30 29 27 27 26
31 34 32 33 35 34 33 31 30 27 26 26 25 25 23 21 22 22 22 22 22 23
30 32 31 32 33 32 30 27 24 23 22 22 21 21 21 22 23 22 21 21 22 22
29 30 30 32 31 29 27 22 22 21 22 22 21 20 22 22 22 21 21 20 20 21
29 29 29 29 29 26 21 21 21 22 22 22 20 23 23 23 22 22 22 20 20 22
31 29 27 26 25 20 21 21 21 21 22 22 24 23 25 24 23 22 21 21 21 21
30 28 27 27 23 21 21 21 21 22 23 24 23 26 25 25 24 22 21 21 19 19
28 26 28 25 21 21 21 21 22 22 25 25 24 25 26 28 24 23 21 20 21 22
27 25 26 29 26 22 22 21 27 27 27 27 25 27 27 25 27 24 22 21 21 22
35 36 35 33 25 23 23 23 27 28 28 27 26 26 24 25 25 24 22 21 20 21
Wind_Speed
12 11 11 12 13 13 13 13 16 12 12 10 8 7 4 1 4 8 9 11 10 10
11 10 10 11 10 8 11 12 10 9 7 7 7 7 8 7 8 11 10 12 10 11
11 12 8 9 11 10 12 13 13 14 11 10 9 8 9 9 8 9 11 11 11 12
12 10 7 9 12 13 14 12 13 11 8 9 7 8 8 12 11 8 10 10 11 14
12 14 14 14 14 13 13 12 13 13 7 9 11 10 12 14 12 13 11 13 15 16
12 9 9 9 10 10 11 12 14 14 13 12 12 12 11 13 11 14 16 18 18 18
10 3 6 8 9 12 13 13 14 14 14 14 14 14 12 12 13 13 14 17 20 21
13 2 4 6 10 12 13 11 13 14 14 14 15 7 7 8 10 12 15 16 19 19
4 7 6 7 10 11 10 10 12 12 14 14 13 7 7 9 11 14 16 18 20 20
3 9 6 8 10 11 9 10 11 12 12 12 12 7 7 9 10 14 16 18 20 20
7 8 6 8 10 5 8 10 12 11 7 9 10 8 12 8 10 13 14 16 19 20
14 10 7 9 7 5 9 12 9 10 10 11 12 14 17 12 13 13 14 15 17 19
17 16 5 10 10 9 11 9 8 7 9 11 14 14 13 15 9 13 14 16 17 19
15 11 7 8 11 11 8 10 6 8 9 12 11 12 16 10 9 12 15 17 18 17
Wind_Direction
10 17 18 17 2 341 334 328 310 4 18 18 41 31 29 358 295 295 275 266 259 262
26 7 22 9 347 334 317 315 354 338 344 33 41 17 346 336 313 324 319 294 301 311
357 359 3 341 306 326 352 359 353 22 28 357 349 355 347 326 320 301 294 296 292 270
337 319 329 354 11 3 342 338 341 355 7 336 339 329 321 290 290 300 304 309 305 304
335 32 11 359 344 339 308 321 315 299 292 280 279 277 270 277 277 271 284 294 291 290
339 23 346 317 321 312 312 319 316 328 329 331 325 316 318 306 313 2 346 328 316 310
326 1 320 322 324 323 316 318 325 330 327 326 321 317 326 358 5 348 327 317 313 309
296 70 351 335 312 314 315 326 335 330 326 325 321 17 16 1 335 322 315 308 304 301
34 340 318 320 303 298 319 336 325 326 321 325 330 70 34 6 339 323 320 309 301 299
281 257 266 294 302 305 333 322 321 316 320 342 3 48 23 1 330 314 320 314 312 312
231 249 261 272 276 306 320 310 304 306 1 357 341 350 343 323 314 320 312 315 314 310
299 263 264 274 300 332 310 298 315 341 355 341 327 314 314 327 306 299 301 301 300 298
313 308 337 11 326 310 301 328 39 7 346 329 322 335 322 325 328 311 312 311 308 302
358 1 21 330 306 314 332 353 38 17 350 327 326 320 328 2 340 323 320 315 314 308